period_start,C,m1,H,J0,J1,J2,J3,J4,J5,JA,JB,JC,JD,JJ,JK,JN,#
2014-05-21 00:03:49,0.03,1.28,0.00,28.91,32.71,35.03,9.39,39.52,1018.07,2015.79,2952.58,2925.35,3141.97,500.10,487.75,39.99,0000 0000 0000 0000 000000
2014-05-21 00:08:51,-0.02,1.28,0.00,28.95,32.74,35.06,9.42,39.53,1018.00,2015.40,2951.98,2924.94,3141.18,500.31,487.89,40.04,0000 0000 0000 0000 000000
2014-05-21 00:13:52,0.03,1.28,0.00,29.00,32.77,35.09,9.35,39.50,1017.97,2015.06,2951.22,2924.21,3140.68,500.00,487.45,40.08,0000 0000 0000 0000 000000
2014-05-21 00:18:53,0.02,1.28,0.00,29.05,32.80,35.11,9.37,39.55,1018.02,2015.00,2950.65,2923.90,3139.97,499.56,487.06,40.12,0000 0000 0000 0000 000000
2014-05-21 00:23:54,0.05,1.29,0.00,29.08,32.83,35.14,9.38,39.56,1018.08,2014.97,2949.87,2923.09,3139.19,500.23,487.56,40.16,0000 0000 0000 0000 000000
2014-05-21 00:28:55,0.03,1.29,0.00,29.13,32.86,35.17,9.24,39.70,1018.07,2014.91,2949.06,2922.63,3138.71,499.58,487.07,40.20,0000 0000 0000 0000 000000
2014-05-21 00:33:56,0.00,1.29,0.00,29.17,32.89,35.20,9.43,39.63,1018.03,2014.52,2948.22,2922.00,3137.99,500.41,487.52,40.24,0000 0000 0000 0000 000000
2014-05-21 00:38:57,0.03,1.29,0.00,29.18,32.92,35.23,9.36,39.48,1018.00,2014.15,2947.37,2921.27,3137.18,499.97,487.02,40.28,0000 0000 0000 0000 000000
2014-05-21 00:43:58,0.01,1.29,0.00,29.23,32.96,35.27,9.36,39.54,1018.07,2014.04,2946.73,2920.93,3136.82,500.23,487.28,40.33,0000 0000 0000 0000 000000
2014-05-21 00:48:59,0.05,1.29,0.00,29.26,32.98,35.30,9.43,39.54,1018.08,2014.00,2945.97,2920.16,3136.04,499.98,487.17,40.37,0000 0000 0000 0000 000000
2014-05-21 00:54:00,0.04,1.29,0.00,29.28,33.01,35.34,9.39,39.57,1018.08,2014.00,2945.21,2919.88,3135.36,500.20,487.10,40.41,0000 0000 0000 0000 000000
2014-05-21 00:59:02,0.04,1.29,0.00,29.33,33.05,35.37,9.28,39.51,1018.07,2013.96,2944.72,2919.10,3134.87,499.82,486.72,40.45,0000 0000 0000 0000 000000
2014-05-21 01:04:03,0.07,1.30,0.00,29.37,33.08,35.39,9.38,39.60,1018.07,2013.92,2943.67,2918.40,3134.12,500.10,487.19,40.49,0000 0000 0000 0000 000000
2014-05-21 01:09:05,-0.05,1.30,0.00,29.39,33.11,35.43,9.44,39.61,1018.08,2013.41,2943.04,2917.93,3133.39,500.22,487.11,40.53,0000 0000 0000 0000 000000
2014-05-21 01:14:06,0.07,1.30,0.00,29.43,33.15,35.46,9.33,39.27,1018.08,2013.07,2941.87,2916.91,3132.41,499.59,486.44,40.58,0000 0000 0000 0000 000000
2014-05-21 01:19:07,0.05,1.30,0.00,29.49,33.18,35.50,9.32,39.47,1018.08,2013.00,2940.95,2916.03,3131.33,499.95,486.61,40.62,0000 0000 0000 0000 000000
2014-05-21 01:24:08,0.07,1.30,0.00,29.52,33.21,35.53,9.38,39.43,1018.08,2013.00,2940.08,2915.20,3130.64,500.31,486.97,40.66,0000 0000 0000 0000 000000
2014-05-21 01:29:09,0.04,1.31,0.00,29.55,33.25,35.55,9.46,39.56,1018.08,2012.95,2939.23,2914.73,3129.89,500.52,487.22,40.70,0000 0000 0000 0000 000000
2014-05-21 01:34:11,-0.01,1.31,0.00,29.60,33.28,35.58,9.39,39.25,1018.08,2012.53,2938.25,2913.93,3129.06,500.00,486.64,40.74,0000 0000 0000 0000 000000
2014-05-21 01:39:12,0.05,1.31,0.00,29.65,33.32,35.62,9.27,39.32,1018.08,2012.19,2937.17,2913.14,3128.30,499.55,486.11,40.78,0000 0000 0000 0000 000000
2014-05-21 01:44:13,0.04,1.31,0.00,29.67,33.36,35.65,9.33,39.64,1018.09,2012.03,2936.37,2912.62,3127.60,500.05,486.43,40.82,0000 0000 0000 0000 000000
2014-05-21 01:49:14,0.06,1.31,0.00,29.69,33.39,35.69,9.31,39.38,1018.09,2012.00,2935.31,2911.86,3126.71,499.97,486.44,40.87,0000 0000 0000 0000 000000
2014-05-21 01:54:15,0.07,1.31,0.00,29.75,33.43,35.72,9.29,39.52,1018.09,2012.00,2934.07,2910.93,3125.83,499.90,486.10,40.91,0000 0000 0000 0000 000000
2014-05-21 01:59:17,0.06,1.32,0.00,29.79,33.46,35.76,9.31,39.33,1018.09,2011.99,2933.08,2910.06,3124.98,499.50,485.73,40.95,0000 0000 0000 0000 000000
2014-05-21 02:04:18,0.05,1.32,0.00,29.81,33.50,35.79,9.35,39.37,1018.08,2011.91,2932.35,2909.51,3124.12,500.16,486.41,40.99,0000 0000 0000 0000 000000
2014-05-21 02:09:19,-0.01,1.32,0.00,29.86,33.53,35.83,9.31,39.34,1018.10,2011.58,2931.40,2908.96,3123.61,500.06,486.38,41.03,0000 0000 0000 0000 000000
2014-05-21 02:14:20,0.03,1.32,0.00,29.91,33.57,35.87,9.27,39.06,1018.11,2011.19,2930.40,2908.16,3122.92,500.03,486.04,41.07,0000 0000 0000 0000 000000
2014-05-21 02:19:22,0.03,1.32,0.00,29.94,33.61,35.90,9.28,39.08,1018.10,2011.03,2929.79,2907.68,3122.11,499.82,485.85,41.11,0000 0000 0000 0000 000000
2014-05-21 02:24:23,0.05,1.32,0.00,29.97,33.64,35.93,9.33,39.33,1018.09,2011.00,2928.92,2907.00,3121.49,499.88,485.93,41.16,0000 0000 0000 0000 000000
2014-05-21 02:29:24,0.06,1.33,0.00,30.02,33.68,35.96,9.36,39.26,1018.11,2011.00,2928.08,2906.24,3120.90,500.04,485.99,41.20,0000 0000 0000 0000 000000
2014-05-21 02:34:25,0.03,1.33,0.00,30.09,33.71,36.00,9.42,39.34,1018.11,2010.96,2927.27,2905.84,3120.08,500.28,486.18,41.24,0000 0000 0000 0000 000000
2014-05-21 02:39:26,0.02,1.33,0.00,30.11,33.74,36.04,9.33,39.19,1018.10,2010.69,2926.53,2905.08,3119.45,500.14,486.00,41.28,0000 0000 0000 0000 000000
2014-05-21 02:44:27,0.00,1.33,0.00,30.13,33.78,36.08,9.25,38.98,1018.10,2010.26,2925.76,2904.47,3118.79,499.91,485.54,41.32,0000 0000 0000 0000 000000
2014-05-21 02:49:28,0.03,1.33,0.00,30.17,33.81,36.11,9.34,39.15,1018.10,2010.04,2924.94,2903.96,3118.05,500.21,485.79,41.36,0000 0000 0000 0000 000000
2014-05-21 02:54:29,0.07,1.33,0.00,30.24,33.85,36.15,9.37,39.21,1018.11,2010.00,2923.98,2903.13,3117.23,500.05,485.68,41.41,0000 0000 0000 0000 000000
2014-05-21 02:59:31,0.06,1.34,0.00,30.27,33.88,36.19,9.33,39.31,1018.11,2010.00,2923.05,2902.44,3116.44,499.83,485.40,41.45,0000 0000 0000 0000 000000
2014-05-21 03:04:32,0.03,1.34,0.00,30.29,33.92,36.23,9.35,39.44,1018.13,2009.96,2922.18,2901.92,3115.79,499.97,485.53,41.49,0000 0000 0000 0000 000000
2014-05-21 03:09:33,0.02,1.34,0.00,30.30,33.95,36.26,9.38,39.17,1018.17,2009.67,2921.42,2901.11,3115.02,500.35,485.64,41.53,0000 0000 0000 0000 000000
2014-05-21 03:14:34,0.01,1.34,0.00,30.35,33.99,36.30,9.29,39.14,1018.44,2009.25,2920.60,2900.63,3114.31,499.88,485.15,41.57,0000 0000 0000 0000 000000
2014-05-21 03:19:35,0.03,1.34,0.00,30.39,34.02,36.33,9.41,39.28,1018.55,2009.05,2919.81,2900.01,3113.75,500.23,485.87,41.61,0000 0000 0000 0000 000000
2014-05-21 03:24:36,0.05,1.34,0.00,30.40,34.05,36.37,9.27,39.05,1018.57,2009.01,2918.97,2899.39,3113.04,499.86,485.32,41.65,0000 0000 0000 0000 000000
2014-05-21 03:29:37,0.05,1.35,0.00,30.40,34.09,36.40,9.34,39.16,1018.58,2009.00,2918.13,2898.91,3112.41,500.17,485.48,41.70,0000 0000 0000 0000 000000
2014-05-21 03:34:38,0.06,1.35,0.00,30.43,34.11,36.43,9.27,38.99,1018.59,2008.99,2917.32,2898.18,3111.75,499.62,485.07,41.74,0000 0000 0000 0000 000000
2014-05-21 03:39:40,0.03,1.35,0.00,30.49,34.15,36.46,9.29,39.02,1018.59,2008.97,2916.61,2897.76,3111.04,500.10,485.11,41.78,0000 0000 0000 0000 000000
2014-05-21 03:44:41,0.05,1.35,0.00,30.52,34.18,36.49,9.35,38.95,1018.63,2008.89,2915.77,2897.04,3110.58,499.78,485.08,41.82,0000 0000 0000 0000 000000
2014-05-21 03:49:42,0.02,1.35,0.00,30.55,34.21,36.53,9.31,39.08,1018.59,2008.57,2914.74,2896.30,3109.68,499.90,485.20,41.86,0000 0000 0000 0000 000000
2014-05-21 03:54:43,0.04,1.35,0.00,30.57,34.24,36.55,9.32,38.87,1018.59,2008.12,2913.59,2895.51,3108.77,499.94,485.27,41.90,0000 0000 0000 0000 000000
2014-05-21 03:59:44,0.06,1.36,0.00,30.60,34.27,36.59,9.37,39.33,1018.58,2008.03,2912.51,2894.70,3107.87,500.15,485.63,41.95,0000 0000 0000 0000 000000
2014-05-21 04:04:46,0.04,1.36,0.00,30.63,34.30,36.62,9.29,38.88,1018.60,2008.00,2911.79,2894.01,3107.06,499.84,485.09,41.99,0000 0000 0000 0000 000000
2014-05-21 04:09:47,0.07,1.36,0.00,30.68,34.34,36.65,9.39,39.28,1018.60,2008.00,2910.90,2893.32,3106.39,500.18,485.23,42.03,0000 0000 0000 0000 000000
2014-05-21 04:14:48,0.02,1.36,0.00,30.70,34.36,36.67,9.31,39.16,1018.58,2007.99,2910.07,2892.95,3105.95,500.36,485.24,42.07,0000 0000 0000 0000 000000
2014-05-21 04:19:49,0.06,1.37,0.00,30.72,34.40,36.71,9.32,38.88,1018.58,2007.90,2909.33,2892.15,3105.13,499.91,485.09,42.11,0000 0000 0000 0000 000000
2014-05-21 04:24:50,0.03,1.37,0.00,30.72,34.42,36.74,9.34,39.33,1018.62,2007.88,2908.47,2891.84,3104.82,499.88,484.89,42.15,0000 0000 0000 0000 000000
2014-05-21 04:29:51,0.02,1.37,0.00,30.74,34.46,36.76,9.39,39.28,1018.61,2007.70,2907.78,2891.12,3104.08,500.02,485.12,42.20,0000 0000 0000 0000 000000
2014-05-21 04:34:53,-0.01,1.37,0.00,30.78,34.48,36.78,9.23,38.97,1018.67,2007.41,2907.06,2890.89,3103.66,499.63,484.54,42.24,0000 0000 0000 0000 000000
2014-05-21 04:39:54,0.03,1.37,0.00,30.82,34.51,36.81,9.29,39.00,1018.71,2007.10,2906.35,2890.13,3103.01,500.04,484.86,42.28,0000 0000 0000 0000 000000
2014-05-21 04:44:55,0.03,1.37,0.00,30.84,34.54,36.84,9.25,39.29,1018.59,2007.01,2905.80,2889.84,3102.41,499.51,484.29,42.32,0000 0000 0000 0000 000000
2014-05-21 04:49:57,0.04,1.37,0.00,30.85,34.56,36.87,9.35,39.22,1018.61,2007.00,2905.05,2889.09,3101.97,500.10,484.98,42.36,0000 0000 0000 0000 000000
2014-05-21 04:54:58,0.05,1.37,0.00,30.87,34.59,36.89,9.40,39.13,1018.59,2006.99,2904.41,2888.74,3101.18,500.30,485.10,42.40,0000 0000 0000 0000 000000
2014-05-21 04:59:59,0.02,1.38,0.00,30.87,34.61,36.92,9.36,39.29,1018.58,2006.96,2903.87,2888.07,3100.86,499.86,484.73,42.44,0000 0000 0000 0000 000000
2014-05-21 05:05:00,0.02,1.38,0.00,30.89,34.64,36.95,9.36,39.11,1018.57,2006.84,2903.11,2887.85,3100.14,499.95,484.74,42.49,0000 0000 0000 0000 000000
2014-05-21 05:10:01,-0.01,1.38,0.00,30.92,34.67,36.97,9.21,38.88,1018.60,2006.33,2902.52,2887.10,3099.74,499.60,484.38,42.53,0000 0000 0000 0000 000000
2014-05-21 05:15:03,0.01,1.38,0.00,30.96,34.70,37.00,9.32,39.30,1018.60,2006.15,2901.92,2886.85,3099.04,499.91,484.48,42.57,0000 0000 0000 0000 000000
2014-05-21 05:20:03,0.04,1.38,0.00,30.97,34.72,37.02,9.33,38.89,1018.58,2006.04,2901.21,2886.11,3098.79,500.12,484.69,42.61,0000 0000 0000 0000 000000
2014-05-21 05:25:04,0.03,1.38,0.00,30.99,34.75,37.04,9.32,39.01,1018.57,2006.00,2900.69,2885.91,3098.08,500.12,484.81,42.65,0000 0000 0000 0000 000000
2014-05-21 05:30:05,0.04,1.38,0.00,31.00,34.77,37.06,9.33,39.05,1018.57,2006.00,2900.04,2885.24,3097.74,500.07,484.60,42.69,0000 0000 0000 0000 000000
2014-05-21 05:35:07,0.03,1.38,0.00,31.02,34.80,37.10,9.38,39.17,1018.52,2006.00,2899.66,2884.99,3097.04,500.05,484.58,42.74,0000 0000 0000 0000 000000
2014-05-21 05:40:08,0.04,1.38,0.00,31.02,34.82,37.11,9.33,39.11,1018.40,2005.99,2899.02,2884.46,3096.74,500.36,484.86,42.78,0000 0000 0000 0000 000000
2014-05-21 05:45:09,-0.00,1.39,0.00,31.03,34.84,37.14,9.34,39.03,1018.22,2005.71,2898.38,2884.00,3096.05,499.82,484.22,42.82,0000 0000 0000 0000 000000
2014-05-21 05:50:10,0.02,1.39,0.00,31.07,34.86,37.16,9.39,39.73,1018.12,2005.57,2897.77,2883.60,3095.77,500.41,484.63,42.86,0000 0000 0000 0000 000000
2014-05-21 05:55:11,-0.00,1.39,0.00,31.10,34.89,37.18,9.31,39.52,1018.12,2005.22,2897.07,2883.03,3095.07,500.28,484.30,42.90,0000 0000 0000 0000 000000
2014-05-21 06:00:13,0.01,1.39,0.00,31.10,34.91,37.20,9.30,39.48,1018.09,2005.12,2896.70,2882.86,3094.82,499.99,484.22,42.94,0000 0000 0000 0000 000000
2014-05-21 06:05:14,0.04,1.39,0.00,31.12,34.93,37.22,9.26,39.31,1018.08,2005.02,2896.03,2882.15,3094.07,500.05,484.33,42.98,0000 0000 0000 0000 000000
2014-05-21 06:10:15,0.02,1.39,0.00,31.12,34.95,37.24,9.31,39.24,1018.08,2005.00,2895.52,2881.95,3093.90,499.81,483.95,43.03,0000 0000 0000 0000 000000
2014-05-21 06:15:16,0.05,1.39,0.00,31.14,34.97,37.26,9.35,39.33,1018.08,2005.00,2894.96,2881.38,3093.18,500.17,484.35,43.07,0000 0000 0000 0000 000000
2014-05-21 06:20:17,0.02,1.39,0.00,31.15,35.00,37.29,9.31,39.25,1018.08,2004.99,2894.28,2881.00,3092.94,500.12,484.19,43.11,0000 0000 0000 0000 000000
2014-05-21 06:25:18,0.04,1.39,0.00,31.16,35.01,37.30,9.27,39.17,1018.08,2004.98,2893.91,2880.68,3092.34,499.83,484.00,43.15,0000 0000 0000 0000 000000
2014-05-21 06:30:20,0.03,1.40,0.00,31.17,35.03,37.33,9.31,39.02,1018.09,2004.94,2893.17,2880.04,3091.99,499.99,483.91,43.19,0000 0000 0000 0000 000000
2014-05-21 06:35:21,0.00,1.40,0.00,31.18,35.05,37.34,9.28,39.08,1018.09,2004.76,2892.86,2879.92,3091.32,499.56,483.62,43.23,0000 0000 0000 0000 000000
2014-05-21 06:40:22,0.02,1.40,0.00,31.20,35.07,37.36,9.36,39.08,1018.11,2004.49,2892.10,2879.34,3091.00,499.93,483.94,43.28,0000 0000 0000 0000 000000
2014-05-21 06:45:23,0.00,1.40,0.00,31.20,35.09,37.38,9.30,39.07,1018.10,2004.35,2891.84,2879.01,3090.67,499.84,483.90,43.32,0000 0000 0000 0000 000000
2014-05-21 06:50:24,0.01,1.40,0.00,31.22,35.10,37.40,9.21,38.95,1018.09,2004.06,2891.06,2878.94,3090.03,499.55,483.74,43.36,0000 0000 0000 0000 000000
2014-05-21 06:55:25,0.04,1.40,0.00,31.23,35.12,37.42,9.21,38.92,1018.08,2004.04,2890.65,2878.33,3089.88,499.67,483.53,43.40,0000 0000 0000 0000 000000
2014-05-21 07:00:27,0.02,1.40,0.00,31.25,35.14,37.43,9.33,39.13,1018.08,2004.01,2890.02,2878.00,3089.15,499.77,483.84,43.44,0000 0000 0000 0000 000000
2014-05-21 07:05:28,0.02,1.40,0.00,31.27,35.15,37.44,9.29,38.86,1018.08,2004.00,2889.58,2877.83,3088.98,499.76,483.69,43.48,0000 0000 0000 0000 000000
2014-05-21 07:10:29,0.05,1.40,0.00,31.28,35.17,37.46,9.26,38.91,1018.08,2004.00,2889.01,2877.11,3088.35,499.49,483.52,43.52,0000 0000 0000 0000 000000
2014-05-21 07:15:29,0.02,1.40,0.00,31.30,35.19,37.48,9.24,39.05,1018.08,2004.00,2888.45,2876.98,3088.00,499.71,483.57,43.57,0000 0000 0000 0000 000000
2014-05-21 07:20:31,0.03,1.40,0.00,31.31,35.20,37.49,9.20,39.17,1018.08,2004.00,2888.01,2876.60,3087.81,500.07,483.93,43.61,0000 0000 0000 0000 000000
2014-05-21 07:25:32,0.04,1.41,0.00,31.32,35.22,37.50,9.32,39.20,1018.08,2003.98,2887.53,2876.04,3087.10,499.79,483.75,43.65,0000 0000 0000 0000 000000
2014-05-21 07:30:33,0.00,1.41,0.00,31.34,35.23,37.51,9.32,39.23,1018.08,2003.93,2887.00,2875.93,3086.89,499.98,483.79,43.69,0000 0000 0000 0000 000000
2014-05-21 07:35:34,0.05,1.41,0.00,31.36,35.25,37.52,9.34,39.17,1018.08,2003.88,2886.38,2875.29,3086.26,499.89,483.60,43.73,0000 0000 0000 0000 000000
2014-05-21 07:40:35,-0.00,1.41,0.00,31.37,35.25,37.53,9.32,39.22,1018.06,2003.76,2885.99,2875.01,3086.01,500.14,483.83,43.77,0000 0000 0000 0000 000000
2014-05-21 07:45:36,0.02,1.41,0.00,31.40,35.27,37.55,9.27,39.04,1018.02,2003.64,2885.37,2874.82,3085.68,499.80,483.54,43.82,0000 0000 0000 0000 000000
2014-05-21 07:50:38,0.03,1.41,0.00,31.41,35.29,37.57,9.20,38.90,1017.82,2003.50,2884.99,2874.19,3085.06,499.46,482.95,43.86,0000 0000 0000 0000 000000
2014-05-21 07:55:39,-0.01,1.41,0.00,31.42,35.30,37.58,9.22,38.82,1017.67,2003.31,2884.42,2874.00,3084.92,500.17,483.62,43.90,0000 0000 0000 0000 000000
2014-05-21 08:00:40,0.02,1.41,0.00,31.45,35.31,37.59,9.28,39.23,1017.62,2003.16,2883.98,2873.78,3084.29,499.71,483.13,43.94,0000 0000 0000 0000 000000
2014-05-21 08:05:41,0.03,1.41,0.00,31.47,35.32,37.61,9.26,38.96,1017.61,2003.10,2883.37,2873.13,3083.99,499.76,483.13,43.98,0000 0000 0000 0000 000000
2014-05-21 08:10:42,0.01,1.41,0.00,31.48,35.34,37.62,9.34,39.42,1017.61,2003.03,2882.94,2872.99,3083.59,499.85,483.38,44.02,0000 0000 0000 0000 000000
2014-05-21 08:15:43,0.04,1.42,0.00,31.50,35.35,37.62,9.19,38.88,1017.63,2003.01,2882.19,2872.60,3083.05,499.65,483.09,44.06,0000 0000 0000 0000 000000
2014-05-21 08:20:44,0.01,1.42,0.00,31.50,35.37,37.64,9.22,38.91,1017.62,2003.00,2881.93,2872.04,3082.96,499.73,483.11,44.11,0000 0000 0000 0000 000000
2014-05-21 08:25:45,0.04,1.42,0.00,31.50,35.38,37.66,9.23,38.71,1017.62,2003.00,2881.24,2871.95,3082.26,500.01,483.38,44.15,0000 0000 0000 0000 000000
2014-05-21 08:30:47,0.03,1.42,0.00,31.52,35.40,37.68,9.25,38.99,1017.61,2003.00,2880.89,2871.37,3081.98,499.87,483.26,44.19,0000 0000 0000 0000 000000
2014-05-21 08:35:48,0.03,1.42,0.00,31.52,35.41,37.69,9.34,39.05,1017.61,2003.00,2880.12,2871.01,3081.62,500.23,483.39,44.23,0000 0000 0000 0000 000000
2014-05-21 08:40:49,0.01,1.42,0.00,31.52,35.42,37.70,9.26,38.99,1017.61,2003.00,2879.96,2870.91,3081.06,499.81,483.26,44.27,0000 0000 0000 0000 000000
2014-05-21 08:45:50,0.05,1.42,0.00,31.52,35.44,37.72,9.28,39.07,1017.61,2002.99,2879.18,2870.19,3080.88,499.81,483.08,44.31,0000 0000 0000 0000 000000
2014-05-21 08:50:52,0.01,1.43,0.00,31.54,35.45,37.73,9.21,39.04,1017.61,2002.95,2878.92,2870.00,3080.15,500.07,483.23,44.36,0000 0000 0000 0000 000000
2014-05-21 08:55:53,0.03,1.43,0.00,31.55,35.46,37.74,9.24,39.10,1017.60,2002.90,2878.18,2869.63,3079.98,499.71,482.88,44.40,0000 0000 0000 0000 000000
2014-05-21 09:00:54,0.02,1.43,0.00,31.55,35.47,37.75,9.32,39.39,1017.59,2002.82,2877.94,2869.11,3079.56,500.02,483.20,44.44,0000 0000 0000 0000 000000
2014-05-21 09:05:55,-0.01,1.43,0.00,31.55,35.48,37.76,9.23,39.13,1017.59,2002.55,2877.22,2868.97,3079.01,499.91,483.03,44.48,0000 0000 0000 0000 000000
2014-05-21 09:10:56,0.02,1.43,0.00,31.55,35.50,37.78,9.27,38.82,1017.59,2002.47,2876.92,2868.58,3078.89,499.75,482.85,44.52,0000 0000 0000 0000 000000
2014-05-21 09:15:57,0.05,1.43,0.00,31.55,35.50,37.79,9.32,39.19,1017.59,2002.46,2876.26,2868.05,3078.26,500.35,483.46,44.56,0000 0000 0000 0000 000000
2014-05-21 09:20:58,-0.03,1.43,0.00,31.55,35.52,37.79,9.26,39.17,1017.60,2002.20,2875.85,2867.95,3077.98,499.90,483.08,44.60,0000 0000 0000 0000 000000
2014-05-21 09:26:00,0.06,1.43,0.00,31.55,35.52,37.81,9.27,39.08,1017.59,2002.08,2875.09,2867.33,3077.51,499.58,482.92,44.65,0000 0000 0000 0000 000000
2014-05-21 09:31:01,0.01,1.43,0.00,31.56,35.53,37.82,9.29,38.92,1017.60,2002.08,2874.87,2867.01,3077.03,499.87,483.00,44.69,0000 0000 0000 0000 000000
2014-05-21 09:36:02,0.01,1.43,0.00,31.56,35.55,37.83,9.29,39.08,1017.60,2002.04,2874.12,2866.95,3076.92,500.09,483.28,44.73,0000 0000 0000 0000 000000
2014-05-21 09:41:03,0.05,1.44,0.00,31.56,35.55,37.83,9.28,39.10,1017.59,2002.00,2873.81,2866.24,3076.18,499.87,483.03,44.77,0000 0000 0000 0000 000000
2014-05-21 09:46:04,0.01,1.44,0.00,31.55,35.55,37.84,9.29,39.02,1017.60,2002.00,2873.12,2866.01,3076.00,499.86,483.07,44.81,0000 0000 0000 0000 000000
2014-05-21 09:51:05,0.02,1.44,0.00,31.56,35.57,37.84,9.24,39.02,1017.60,2002.00,2872.80,2865.90,3075.72,499.88,483.09,44.85,0000 0000 0000 0000 000000
2014-05-21 09:56:07,0.05,1.44,0.00,31.57,35.57,37.85,9.32,39.11,1017.60,2002.00,2872.09,2865.33,3075.07,499.83,482.94,44.89,0000 0000 0000 0000 000000
2014-05-21 10:01:08,0.00,1.44,0.00,31.57,35.58,37.86,9.29,39.34,1017.59,2002.00,2871.94,2865.01,3074.99,500.07,483.09,44.94,0000 0000 0000 0000 000000
2014-05-21 10:06:09,0.03,1.44,0.00,31.57,35.59,37.86,9.29,39.14,1017.59,2002.00,2871.19,2864.97,3074.57,500.30,483.47,44.98,0000 0000 0000 0000 000000
2014-05-21 10:11:10,0.03,1.44,0.00,31.57,35.60,37.87,9.31,39.11,1017.59,2002.00,2870.96,2864.55,3074.05,499.89,483.08,45.02,0000 0000 0000 0000 000000
2014-05-21 10:16:11,0.03,1.44,0.00,31.57,35.60,37.88,9.28,39.16,1017.58,2002.00,2870.25,2864.04,3073.96,499.90,483.16,45.06,0000 0000 0000 0000 000000
2014-05-21 10:21:13,0.01,1.44,0.00,31.57,35.61,37.88,9.27,39.07,1017.55,2002.00,2869.97,2863.98,3073.43,499.98,483.19,45.10,0000 0000 0000 0000 000000
2014-05-21 10:26:13,0.03,1.45,0.00,31.57,35.62,37.89,9.29,39.21,1017.53,2002.00,2869.44,2863.76,3073.02,499.87,483.15,45.14,0000 0000 0000 0000 000000
2014-05-21 10:31:14,0.03,1.45,0.00,31.57,35.62,37.90,9.29,39.08,1017.42,2002.00,2868.93,2863.09,3072.89,499.82,482.76,45.18,0000 0000 0000 0000 000000
2014-05-21 10:36:15,0.04,1.45,0.00,31.59,35.63,37.91,9.33,39.04,1017.26,2001.98,2868.13,2862.90,3072.15,500.05,483.13,45.23,0000 0000 0000 0000 000000
2014-05-21 10:41:16,0.03,1.45,0.00,31.59,35.65,37.93,9.27,38.74,1017.20,2001.96,2867.74,2862.33,3071.99,499.81,482.75,45.27,0000 0000 0000 0000 000000
2014-05-21 10:46:17,0.02,1.45,0.00,31.60,35.65,37.94,9.26,38.89,1017.14,2001.94,2867.03,2862.00,3071.59,500.02,482.96,45.31,0000 0000 0000 0000 000000
2014-05-21 10:51:19,0.03,1.45,0.00,31.60,35.65,37.95,9.24,38.76,1017.12,2001.91,2866.52,2861.87,3071.02,500.22,483.19,45.35,0000 0000 0000 0000 000000
2014-05-21 10:56:20,0.03,1.45,0.00,31.60,35.66,37.96,9.18,39.06,1017.12,2001.88,2866.01,2861.23,3070.96,499.74,482.76,45.39,0000 0000 0000 0000 000000
2014-05-21 11:01:21,0.03,1.46,0.00,31.60,35.67,37.96,9.34,39.02,1017.11,2001.86,2865.49,2861.00,3070.55,500.48,483.29,45.43,0000 0000 0000 0000 000000
2014-05-21 11:06:22,0.01,1.46,0.00,31.60,35.67,37.98,9.34,39.16,1017.11,2001.80,2865.00,2860.89,3070.05,500.37,483.34,45.48,0000 0000 0000 0000 000000
2014-05-21 11:11:23,0.04,1.46,0.00,31.60,35.68,37.98,9.28,39.12,1017.09,2001.77,2864.41,2860.29,3069.96,499.75,482.64,45.52,0000 0000 0000 0000 000000
2014-05-21 11:16:24,0.02,1.46,0.00,31.60,35.68,37.98,9.28,39.14,1017.05,2001.69,2864.00,2860.01,3069.40,500.10,483.01,45.56,0000 0000 0000 0000 000000
2014-05-21 11:21:25,0.02,1.46,0.00,31.59,35.68,37.98,9.26,39.09,1017.03,2001.70,2863.47,2859.99,3069.01,499.87,482.81,45.60,0000 0000 0000 0000 000000
2014-05-21 11:26:26,0.03,1.46,0.00,31.57,35.69,37.99,9.34,39.29,1016.80,2001.77,2863.00,2859.58,3068.96,500.05,482.89,45.64,0000 0000 0000 0000 000000
2014-05-21 11:31:27,0.04,1.46,0.00,31.55,35.68,37.99,9.33,39.08,1016.67,2001.76,2862.43,2859.08,3068.49,500.47,483.08,45.68,0000 0000 0000 0000 000000
2014-05-21 11:36:28,0.02,1.46,0.00,31.53,35.68,37.99,9.29,39.10,1016.62,2001.84,2862.00,2859.00,3068.02,499.89,482.83,45.72,0000 0000 0000 0000 000000
2014-05-21 11:41:29,0.02,1.47,0.00,31.50,35.67,37.99,9.29,39.08,1016.62,2001.90,2861.55,2858.96,3068.00,500.17,482.90,45.77,0000 0000 0000 0000 000000
2014-05-21 11:46:30,0.03,1.47,0.00,31.47,35.67,37.99,9.30,38.94,1016.62,2001.87,2861.01,2858.40,3067.78,499.74,482.68,45.81,0000 0000 0000 0000 000000
2014-05-21 11:51:32,0.04,1.47,0.00,31.44,35.67,37.99,9.29,38.78,1016.62,2001.89,2860.45,2858.02,3067.09,500.22,482.98,45.85,0000 0000 0000 0000 000000
2014-05-21 11:56:33,0.00,1.47,0.00,31.41,35.65,37.98,9.26,38.93,1016.62,2001.95,2859.99,2857.98,3066.99,499.70,482.78,45.89,0000 0000 0000 0000 000000
2014-05-21 12:01:34,0.04,1.47,0.00,31.35,35.65,37.96,9.34,39.10,1016.62,2001.93,2859.37,2857.68,3066.73,499.98,482.97,45.93,0000 0000 0000 0000 000000
2014-05-21 12:06:35,0.03,1.47,0.00,31.29,35.64,37.96,9.29,39.06,1016.62,2001.97,2859.00,2857.16,3066.19,500.00,483.14,45.97,0000 0000 0000 0000 000000
2014-05-21 12:11:36,0.02,1.47,0.00,31.24,35.62,37.95,9.31,38.96,1016.60,2001.97,2858.39,2857.00,3066.00,499.78,483.04,46.01,0000 0000 0000 0000 000000
2014-05-21 12:16:37,0.01,1.47,0.00,31.18,35.61,37.93,9.37,39.07,1016.43,2001.98,2857.99,2856.97,3065.91,500.20,483.52,46.06,0000 0000 0000 0000 000000
2014-05-21 12:21:38,0.05,1.48,0.00,31.13,35.60,37.91,9.31,39.00,1016.18,2001.99,2857.42,2856.55,3065.35,500.37,483.49,46.10,0000 0000 0000 0000 000000
2014-05-21 12:26:39,0.02,1.48,0.00,31.08,35.59,37.90,9.32,38.92,1016.14,2001.99,2856.96,2856.05,3065.01,500.33,483.64,46.14,0000 0000 0000 0000 000000
2014-05-21 12:31:41,0.02,1.48,0.00,31.07,35.57,37.87,9.35,39.18,1016.18,2001.99,2856.20,2856.00,3064.94,500.34,483.63,46.18,0000 0000 0000 0000 000000
2014-05-21 12:36:42,0.03,1.48,0.00,31.04,35.55,37.85,9.33,38.77,1016.23,2001.99,2855.81,2855.81,3064.31,499.69,483.09,46.22,0000 0000 0000 0000 000000
2014-05-21 12:41:43,0.04,1.48,0.00,31.00,35.53,37.83,9.27,39.13,1016.15,2001.99,2855.09,2855.30,3064.01,499.72,483.15,46.26,0000 0000 0000 0000 000000
2014-05-21 12:46:44,0.02,1.48,0.00,30.96,35.51,37.81,9.30,39.07,1016.14,2002.00,2854.52,2855.00,3063.93,499.97,483.46,46.31,0000 0000 0000 0000 000000
2014-05-21 12:51:45,0.02,1.48,0.00,30.91,35.50,37.80,9.23,38.82,1016.14,2002.02,2854.00,2854.93,3063.32,499.78,483.35,46.35,0000 0000 0000 0000 000000
2014-05-21 12:56:47,0.06,1.49,0.00,30.87,35.47,37.78,9.36,39.00,1016.13,2002.09,2853.28,2854.32,3063.01,500.25,483.61,46.39,0000 0000 0000 0000 000000
2014-05-21 13:01:47,0.02,1.49,0.00,30.87,35.46,37.76,9.28,38.98,1016.12,2002.18,2852.89,2854.01,3062.94,499.98,483.58,46.43,0000 0000 0000 0000 000000